[[{"header":{"parameterUnit":"m.s-1","parameterCategory":1,"la1":30.2991,"la2":30.254,"lo1":-89.0895,"lo2":-89.0444,"dy":0.0017,"dx":0.0017,"nx":28,"ny":28,"refTime":"2023-10-05T21:00:00:Z","depth":0,"parameterNumber":2,"parameterNumberName":"U-component_of_WINDS"},"data":[0,0,0,0,0,0,0,0,0,0,0,0,0,0,0,0,0,0,0,0,0,0,0,0,0,0,0,0,0,0,0,0,0,0,0,0,0,0,0,0,0,0,0,0,0,0,0,0,0,0,0,0,0,0,0,0,0,0,-4.3104,-4.3106,0,-4.3241,-4.3243,-4.3245,-4.3254,-4.3252,-4.3251,-4.3249,-4.3388,-4.3393,-4.3398,0,0,0,0,0,0,0,0,0,0,0,0,0,-4.2852,-4.2857,-4.3104,-4.3106,-4.3108,-4.3241,-4.3243,-4.3245,-4.3254,-4.3252,-4.325,-4.3248,-4.3386,-4.3392,-4.3399,0,0,0,0,0,0,0,0,0,0,0,0,0,-4.2973,-4.2858,-4.3104,-4.3128,-4.3132,-4.3241,-4.3243,-4.3245,-4.3254,-4.3252,-4.325,-4.3248,-4.3384,-4.3392,-4.3399,-4.3493,0,0,-4.3423,-4.3426,0,0,0,0,0,0,0,0,-4.2966,-4.2982,-4.3123,-4.3127,-4.3131,-4.3228,-4.3205,-4.3328,-4.3255,-4.3208,-4.3249,-4.3246,-4.3337,-4.3348,-4.3379,-4.35,-4.3505,-4.3424,-4.3428,-4.3432,-4.3434,0,0,0,0,0,0,0,-4.2958,-4.2976,-4.3159,-4.3125,-4.313,-4.3133,-4.3148,-4.3229,-4.3283,-4.3212,-4.3213,-4.3229,-4.3338,-4.3371,-4.3382,-4.3508,-4.3423,-4.343,-4.3435,-4.3438,-4.3715,-4.3717,0,0,0,0,0,0,-4.2945,-4.2969,-4.3154,-4.3163,-4.3041,-4.3139,-4.3156,-4.3199,-4.3283,-4.3293,-4.3231,-4.3229,-4.3359,-4.3373,-4.3387,-4.3502,-4.3432,-4.3439,-4.3443,-4.3712,-4.3715,-4.3718,0,0,0,0,0,0,-4.2939,-4.2961,-4.3149,-4.3066,-4.309,-4.3146,-4.3195,-4.3203,-4.3236,-4.3297,-4.3307,-4.3254,-4.3358,-4.3376,-4.3467,-4.3507,-4.3442,-4.3449,-4.3709,-4.3713,-4.3717,-4.3734,0,0,0,0,0,0,-4.2932,-4.2959,-4.2994,-4.3067,-4.3095,-4.3226,-4.3198,-4.3208,-4.3249,-4.3248,-4.3322,-4.3331,-4.3358,-4.3456,-4.3475,-4.3517,-4.3455,-4.3705,-4.3711,-4.3716,-4.373,-4.3738,-4.3745,0,0,0,0,0,-4.2923,-4.2993,-4.2996,-4.3018,-4.314,-4.3228,-4.3244,-4.3273,-4.3253,-4.3289,-4.3329,-4.3329,-4.3501,-4.3465,-4.3487,-4.3531,-4.3703,-4.3709,-4.3715,-4.3726,-4.3736,-4.3744,0,0,0,0,0,0,-4.2921,-4.3002,-4.3007,-4.3102,-4.3158,-4.3229,-4.3275,-4.3282,-4.3345,-4.3341,-4.3375,-4.3391,-4.3481,-4.3516,-4.3475,-4.3628,-4.36,-4.3611,-4.3601,-4.3611,-4.3618,-4.3606,-4.3462,0,0,0,0,0,-4.2932,-4.2997,-4.3065,-4.3142,-4.3171,-4.3219,-4.3258,-4.3276,-4.3335,-4.3359,-4.3405,-4.3462,-4.353,-4.3573,-4.3638,-4.3737,-4.3753,-4.3779,-4.3786,-4.3792,-4.38,-4.3856,-4.3868,-4.3739,-4.3738,-4.3738,0,0,-4.2955,-4.3007,-4.3046,-4.3143,-4.3189,-4.3255,-4.3238,-4.3308,-4.3358,-4.3369,-4.3457,-4.3495,-4.3561,-4.3657,-4.3701,-4.3689,-4.384,-4.38,-4.3804,-4.3809,-4.3863,-4.3876,-4.3886,-4.3743,-4.3742,-4.3741,0,0,-4.3029,-4.3076,-4.3146,-4.3194,-4.3264,-4.3296,-4.3313,-4.3385,-4.341,-4.35,-4.351,-4.3571,-4.3685,-4.3733,-4.3772,-4.3871,-4.3874,-4.3892,-4.3929,-4.3984,-4.3994,-4.4003,-4.4037,-4.405,-4.39,-4.39,-4.39,0,-4.3048,-4.3148,-4.3181,-4.3253,-4.3296,-4.3312,-4.3384,-4.3428,-4.3515,-4.3545,-4.3531,-4.3677,-4.3723,-4.383,-4.3855,-4.3887,-4.3908,-4.3881,-4.399,-4.3999,-4.4008,-4.4042,-4.4055,-4.3902,-4.3902,-4.3901,-4.3901,0,-4.3168,-4.3238,-4.3287,-4.3372,-4.3422,-4.3493,-4.3537,-4.3584,-4.36,-4.3634,-4.3727,-4.3784,-4.3861,-4.3889,-4.3904,-4.4,-4.399,-4.3983,-4.3954,-4.4022,-4.4053,-4.4067,-4.3904,-4.3903,-4.3903,-4.3903,0,0,-4.324,-4.3347,-4.3363,-4.3403,-4.3484,-4.3539,-4.3613,-4.369,-4.3729,-4.3791,-4.3853,-4.3953,-4.3948,-4.3992,-4.4014,-4.4062,-4.4137,-4.4049,-4.4051,-4.4062,-4.4246,-4.4249,-4.4263,-4.4141,-4.4144,-4.4146,-4.424,0,-4.3322,-4.3452,-4.3486,-4.3597,-4.3663,-4.3682,-4.3746,-4.3803,-4.3839,-4.3901,-4.3941,-4.401,-4.3998,-4.4026,-4.4075,-4.4117,-4.4174,-4.4112,-4.4199,-4.4201,-4.4178,-4.428,-4.4282,-4.4367,-4.4253,-4.4255,-4.4256,0,-4.3434,-4.3499,-4.3616,-4.3692,-4.3721,-4.3777,-4.3852,-4.3911,-4.3978,-4.4001,-4.4054,-4.4072,-4.4151,-4.4122,-4.4231,-4.4188,-4.4227,-4.4254,-4.4259,-4.4265,-4.423,-4.4286,-4.4395,-4.4407,-4.4276,-4.4275,-4.4273,0,-4.3472,-4.359,-4.3676,-4.371,-4.38,-4.384,-4.388,-4.3944,-4.399,-4.4056,-4.4086,-4.4161,-4.4201,-4.4259,-4.4298,-4.4274,-4.4404,-4.4379,-4.4425,-4.4424,-4.4448,-4.4445,-4.4562,-4.4478,-4.4478,-4.4478,-4.4477,0,-4.3559,-4.3629,-4.3695,-4.3747,-4.3828,-4.3869,-4.3948,-4.3989,-4.4047,-4.4108,-4.4131,-4.4188,-4.4237,-4.4302,-4.4334,-4.4419,-4.4438,-4.4459,-4.4465,-4.4455,-4.4452,-4.4478,-4.4472,-4.4481,-4.448,-4.448,-4.4479,0,-4.3613,-4.366,-4.3755,-4.3834,-4.3856,-4.3912,-4.398,-4.4033,-4.4072,-4.4149,-4.417,-4.4231,-4.4308,-4.4354,-4.4452,-4.4473,-4.4568,-4.4574,-4.4545,-4.4547,-4.459,-4.4585,-4.4725,-4.4746,-4.465,-4.4651,-4.4652,0,-4.3663,-4.3718,-4.3805,-4.3848,-4.3888,-4.3957,-4.4004,-4.4049,-4.4097,-4.418,-4.4222,-4.4302,-4.4367,-4.4491,-4.4543,-4.4619,-4.4625,-4.467,-4.4637,-4.4625,-4.4624,-4.4619,-4.4625,-4.4674,-4.4675,-4.4675,-4.4676,0,-4.3747,-4.3768,-4.3835,-4.3912,-4.3968,-4.403,-4.4091,-4.4126,-4.4181,-4.4234,-4.4314,-4.4366,-4.4467,-4.4546,-4.4627,-4.4669,-4.4682,-4.4687,-4.4701,-4.4689,-4.467,-4.4679,-4.4557,-4.4682,-4.4682,-4.4681,-4.4681,-4.4681,-4.3799,-4.385,-4.3919,-4.3994,-4.4046,-4.4104,-4.4158,-4.4205,-4.4272,-4.4358,-4.4381,-4.4466,-4.4535,-4.4645,-4.469,-4.4757,-4.4749,-4.4771,-4.4775,-4.4779,-4.478,-4.4662,-4.4772,-4.4772,-4.4772,-4.4772,-4.4772,0,-4.3883,-4.3929,-4.3998,-4.4085,-4.4144,-4.4154,-4.4224,-4.4273,-4.4347,-4.4411,-4.4476,-4.4569,-4.4647,-4.4708,-4.4788,-4.4831,-4.4839,-4.485,-4.4845,-4.4855,-4.4782,-4.4761,-4.4842,-4.4842,-4.4842,-4.4842,-4.4842,-4.4842,-4.3933,-4.4019,-4.4049,-4.4163,-4.421,-4.4292,-4.4332,-4.4386,-4.4437,-4.4541,-4.4606,-4.4646,-4.4709,-4.4795,-4.4868,-4.4884,-4.4911,-4.4921,-4.4938,-4.4868,-4.486,-4.4852,-4.4832,-4.4927,-4.4928,-4.5005,-4.5006,-4.5006]},{"header":{"parameterUnit":"m.s-1","parameterCategory":1,"la1":30.2991,"la2":30.254,"lo1":-89.0895,"lo2":-89.0444,"dy":0.0017,"dx":0.0017,"nx":28,"ny":28,"refTime":"2023-10-05T21:00:00:Z","depth":0,"parameterNumber":3,"parameterNumberName":"V-component_of_WINDS"},"data":[0,0,0,0,0,0,0,0,0,0,0,0,0,0,0,0,0,0,0,0,0,0,0,0,0,0,0,0,0,0,0,0,0,0,0,0,0,0,0,0,0,0,0,0,0,0,0,0,0,0,0,0,0,0,0,0,0,0,2.8908,2.8908,0,2.8935,2.8935,2.8935,2.901,2.9012,2.9013,2.9015,2.9036,2.9035,2.9034,0,0,0,0,0,0,0,0,0,0,0,0,0,2.8915,2.8915,2.8908,2.8908,2.8908,2.8935,2.8935,2.8936,2.901,2.9012,2.9014,2.9015,2.9037,2.9036,2.9034,0,0,0,0,0,0,0,0,0,0,0,0,0,2.8924,2.8915,2.8908,2.8949,2.8953,2.8935,2.8935,2.8936,2.9009,2.9012,2.9014,2.9016,2.9037,2.9036,2.9034,2.8977,0,0,2.903,2.9029,0,0,0,0,0,0,0,0,2.8923,2.8924,2.8942,2.8946,2.895,2.8972,2.8946,2.8949,2.9009,2.8987,2.9015,2.9018,2.9012,2.9013,2.9013,2.8978,2.8979,2.903,2.9029,2.9028,2.9028,0,0,0,0,0,0,0,2.8923,2.8923,2.8918,2.8942,2.8947,2.8964,2.8968,2.8947,2.8986,2.899,2.8995,2.8998,2.9015,2.9014,2.9014,2.8979,2.903,2.9029,2.9028,2.9027,2.89,2.8897,0,0,0,0,0,0,2.8917,2.8922,2.8917,2.8919,2.8943,2.8962,2.8967,2.8962,2.8986,2.8992,2.8995,2.9001,2.9015,2.9015,2.9015,2.895,2.9028,2.9027,2.9026,2.8902,2.8899,2.8897,0,0,0,0,0,0,2.8917,2.8916,2.8916,2.8922,2.8924,2.896,2.8954,2.8961,2.8961,2.8991,2.8998,2.8988,2.9017,2.9017,2.8987,2.8952,2.9026,2.9025,2.8905,2.8901,2.8898,2.882,0,0,0,0,0,0,2.8917,2.8915,2.8895,2.8921,2.8923,2.8889,2.8952,2.896,2.8959,2.8966,2.8985,2.8991,2.9019,2.8988,2.8985,2.8951,2.9024,2.8909,2.8904,2.8899,2.8825,2.8813,2.8803,0,0,0,0,0,2.8917,2.887,2.8894,2.8893,2.8898,2.8886,2.8887,2.8923,2.8956,2.8935,2.8954,2.899,2.8956,2.8985,2.8982,2.8947,2.8911,2.8905,2.89,2.883,2.8816,2.8804,0,0,0,0,0,0,2.8836,2.8874,2.8901,2.8861,2.887,2.8899,2.8874,2.8906,2.8904,2.8911,2.8953,2.8957,2.8921,2.8931,2.8961,2.8893,2.894,2.8933,2.8888,2.8874,2.8864,2.8862,2.9023,0,0,0,0,0,2.8815,2.8803,2.8837,2.8799,2.8802,2.8837,2.8833,2.886,2.887,2.8874,2.8891,2.8898,2.889,2.8883,2.8876,2.8828,2.8833,2.8802,2.8791,2.8782,2.8776,2.8751,2.8738,2.8878,2.8878,2.8878,0,0,2.8768,2.8788,2.8778,2.8783,2.8793,2.878,2.884,2.8822,2.8812,2.887,2.8844,2.8857,2.8867,2.8828,2.8811,2.8835,2.8738,2.8775,2.8767,2.8766,2.8744,2.8731,2.8719,2.8874,2.8875,2.8875,0,0,2.8677,2.8691,2.8662,2.8671,2.8687,2.8711,2.8704,2.8728,2.874,2.8714,2.8758,2.8746,2.873,2.8736,2.8737,2.865,2.8683,2.8647,2.8589,2.8565,2.8554,2.8544,2.8513,2.8502,2.864,2.864,2.864,0,2.8617,2.86,2.8642,2.8623,2.8623,2.8678,2.8648,2.8655,2.8666,2.8665,2.8693,2.8675,2.8686,2.8649,2.8628,2.8627,2.8619,2.8644,2.8552,2.8543,2.8535,2.8506,2.8494,2.8636,2.8636,2.8637,2.8637,0,2.8526,2.8513,2.8488,2.85,2.8498,2.8473,2.851,2.8503,2.853,2.8551,2.8524,2.8539,2.8538,2.8531,2.8556,2.8498,2.8512,2.8545,2.8592,2.8516,2.849,2.8479,2.8629,2.8631,2.8632,2.8633,0,0,2.8384,2.8422,2.8411,2.8418,2.844,2.8431,2.8408,2.8409,2.8402,2.8408,2.839,2.8376,2.8408,2.8408,2.8435,2.8414,2.8345,2.845,2.8451,2.843,2.8282,2.8256,2.8243,2.8367,2.8365,2.8364,2.8281,0,2.8298,2.8264,2.8302,2.8259,2.8248,2.83,2.8281,2.8291,2.831,2.8303,2.8323,2.8313,2.8355,2.8356,2.8337,2.8357,2.8315,2.8364,2.8349,2.8348,2.8345,2.8229,2.8202,2.8123,2.8271,2.8269,2.8268,0,2.8194,2.8198,2.8155,2.8181,2.8178,2.816,2.8164,2.8156,2.8169,2.8185,2.8187,2.822,2.8199,2.8246,2.8217,2.8249,2.8245,2.8254,2.8252,2.8251,2.8303,2.8225,2.8099,2.8087,2.8252,2.8253,2.8254,0,2.8095,2.809,2.8064,2.8068,2.8097,2.8084,2.8095,2.8111,2.8109,2.8112,2.8111,2.8111,2.811,2.8109,2.8141,2.8172,2.8107,2.8157,2.8119,2.8118,2.8102,2.8102,2.7973,2.81,2.81,2.81,2.8101,0,2.7996,2.7967,2.802,2.8004,2.7973,2.8016,2.7984,2.8001,2.8015,2.8002,2.8046,2.8033,2.8076,2.8067,2.8092,2.8064,2.8063,2.8074,2.8081,2.807,2.8069,2.8068,2.8074,2.8097,2.8098,2.8099,2.8099,0,2.788,2.7914,2.7889,2.792,2.7927,2.7903,2.7929,2.7915,2.7938,2.7921,2.7919,2.7954,2.7946,2.7978,2.7974,2.7991,2.795,2.7966,2.7946,2.7951,2.7911,2.7914,2.7776,2.776,2.7897,2.7896,2.7895,0,2.7814,2.7794,2.7823,2.7819,2.7829,2.7821,2.782,2.7861,2.7858,2.7873,2.7856,2.7852,2.7851,2.7835,2.7859,2.7857,2.7873,2.7825,2.7873,2.7863,2.7872,2.7873,2.7871,2.7814,2.7813,2.7811,2.781,0,2.7694,2.7712,2.771,2.7714,2.7713,2.7718,2.7725,2.7718,2.7763,2.7757,2.7751,2.775,2.7748,2.7743,2.7746,2.7756,2.779,2.7795,2.7786,2.7775,2.7764,2.7769,2.7919,2.7798,2.7799,2.78,2.7801,2.7801,2.7601,2.7586,2.7605,2.7601,2.7612,2.7618,2.7607,2.7629,2.7625,2.7628,2.7652,2.7641,2.7655,2.7663,2.767,2.7661,2.7683,2.767,2.7667,2.7663,2.7656,2.7766,2.7661,2.7662,2.7662,2.7662,2.7663,0,2.7483,2.7499,2.7495,2.7506,2.7503,2.7537,2.7548,2.7543,2.7533,2.7544,2.7543,2.7535,2.7531,2.7556,2.7555,2.7543,2.7558,2.7541,2.7542,2.7544,2.7636,2.7644,2.7528,2.7528,2.7529,2.7529,2.7529,2.7529,2.7422,2.7398,2.7419,2.7401,2.7416,2.7407,2.741,2.7416,2.7425,2.7416,2.7413,2.743,2.7446,2.7447,2.7445,2.7452,2.7449,2.7427,2.7439,2.7524,2.7537,2.755,2.7557,2.7426,2.7426,2.7348,2.7347,2.7346]}]]